Beaufort, SC

2:53 AM EDT on July 29, 2016 (GMT -0400)
Beaufort Marine Corps Air Station

Weather History for KNBC - December, 2011

Change the Weather History Date:

Friday, December 9, 2011

  Actual Average Record
Temperature  
Mean Temperature 54 °F -  
Max Temperature 69 °F 64 °F 82 °F (1943)
Min Temperature 39 °F 43 °F 21 °F (1968)
Degree Days  
Heating Degree Days 11    
Growing Degree Days 4 (Base 50)    
Moisture  
Dew Point 43 °F    
Average Humidity 69    
Maximum Humidity 86    
Minimum Humidity 47    
Precipitation  
Precipitation 0.00 in - - ()
Sea Level Pressure  
Sea Level Pressure 30.23 in    
Wind  
Wind Speed 4 mph (NNW)    
Max Wind Speed 8 mph    
Max Gust Speed -    
Visibility 10 miles    
Events      
Averages and records for this station are not official NWS values.
T = Trace of Precipitation, MM = Missing Value Source: NWS Daily Summary

Daily Weather History Graph

Daily Weather History Graph

Search for Another Location

Airport or City:

Trip Planner

Search our weather history database for the weather conditions in past years. The results will help you decide how hot, cold, wet, or windy it might be!

Date:

Astronomy

Dec. 09, 2011 Rise Set
Actual Time 7:12 AM EST 5:17 PM EST
Civil Twilight 6:45 AM EST 5:44 PM EST
Nautical Twilight 6:15 AM EST 6:15 PM EST
Astronomical Twilight 5:45 AM EST 6:45 PM EST
Moon 4:40 PM EST (12/9) 6:18 AM EST (12/9)
Length of Visible Light 10h 58m
Length of Day
10h 04m
Waxing Gibbous, 99% of the Moon is Illuminated
Dec 9
Waxing Gibbous
Dec 10
Full
Dec 17
Last Quarter
Dec 24
New
Jan 1
First Quarter

Hourly Weather History & Observations

Time (EST) Temp. Windchill Dew Point Humidity Pressure Visibility Wind Dir Wind Speed Gust Speed Precip Events Conditions
12:56 AM 41.0 °F 39.0 °F 37.0 °F 86% 30.28 in 10.0 mi NW 3.5 mph - N/A   Smoke
1:56 AM 41.0 °F - 36.0 °F 82% 30.27 in 10.0 mi Calm Calm - N/A   Smoke
2:56 AM 41.0 °F 38.0 °F 36.0 °F 82% 30.25 in 10.0 mi NNW 4.6 mph - N/A   Smoke
3:56 AM 39.0 °F 34.8 °F 34.0 °F 82% 30.23 in 10.0 mi NNW 5.8 mph - N/A   Smoke
4:56 AM 42.1 °F 38.4 °F 34.0 °F 73% 30.23 in 10.0 mi NW 5.8 mph - N/A   Smoke
5:56 AM 41.0 °F 36.4 °F 34.0 °F 76% 30.24 in 10.0 mi NNW 6.9 mph - N/A   Smoke
6:56 AM 41.0 °F 36.4 °F 35.1 °F 79% 30.25 in 10.0 mi NNW 6.9 mph - N/A   Scattered Clouds
7:56 AM 45.0 °F 40.6 °F 37.0 °F 74% 30.26 in 10.0 mi North 8.1 mph - N/A   Mostly Cloudy
8:56 AM 50.0 °F - 39.0 °F 66% 30.27 in 10.0 mi North 5.8 mph - N/A   Scattered Clouds
9:56 AM 53.1 °F - 41.0 °F 64% 30.28 in 10.0 mi NNW 8.1 mph - N/A   Scattered Clouds
10:56 AM 57.0 °F - 44.1 °F 62% 30.28 in 10.0 mi WNW 4.6 mph - N/A   Mostly Cloudy
11:56 AM 59.0 °F - 46.0 °F 62% 30.24 in 10.0 mi NW 5.8 mph - N/A   Clear
12:56 PM 66.0 °F - 48.9 °F 54% 30.22 in 10.0 mi North 6.9 mph - N/A   Scattered Clouds
1:56 PM 68.0 °F - 50.0 °F 52% 30.19 in 10.0 mi North 4.6 mph - N/A   Scattered Clouds
2:56 PM 69.1 °F - 48.9 °F 49% 30.18 in 10.0 mi Variable 3.5 mph - N/A   Scattered Clouds
3:56 PM 69.1 °F - 48.0 °F 47% 30.17 in 10.0 mi NW 3.5 mph - N/A   Clear
4:56 PM 64.0 °F - 46.9 °F 54% 30.19 in 10.0 mi WNW 8.1 mph - N/A   Clear
5:56 PM 59.0 °F - 48.0 °F 67% 30.21 in 10.0 mi West 4.6 mph - N/A   Clear
6:56 PM 51.1 °F - 44.1 °F 77% 30.21 in 10.0 mi North 8.1 mph - N/A   Clear
7:56 PM 55.9 °F - 46.9 °F 72% 30.23 in 10.0 mi NNW 3.5 mph - N/A   Overcast
8:56 PM 55.9 °F - 48.0 °F 75% 30.25 in 10.0 mi Calm Calm - N/A   Overcast
9:56 PM 57.0 °F - 48.0 °F 72% 30.24 in 10.0 mi Calm Calm - N/A   Overcast
10:56 PM 55.0 °F - 48.0 °F 77% 30.22 in 10.0 mi Calm Calm - N/A   Overcast
11:56 PM 54.0 °F - 48.0 °F 80% 30.22 in 10.0 mi Calm Calm - N/A   Overcast